Tracking 27423 objects as of 8-Jun-2023
HD Live streaming from Space Station
objects crossing your sky now

FREGAT R/B

Track FREGAT R/B now!


NORAD ID: 37345
Int'l Code: 2011-001B
Perigee: 34,431.2 km
Apogee: 35,769.2 km
Inclination: 8.1 °
Period: 1,400.8 minutes
Semi major axis: 41471 km
RCS: 8.569 m2 (large)
Launch date: January 20, 2011
Source: Commonwealth of Independent States (former USSR) (CIS)
Launch site: TYURATAM MISSILE AND SPACE COMPLEX (TTMTR)

Note: This is a ROCKET BODY
Your satellite tracking list
Your tracking list is empty




NASA's NSSDC Master Catalog

Two Line Element Set (TLE):
1 37345U 11001B   23159.57070458  .00000005  00000-0  00000-0 0  9996
2 37345   8.1193  51.2241 0161312  42.1965 169.7104  1.02797710 49041
Source of the keplerian elements: AFSPC